Date String (YYYY-MM-DD hh:mm:ss) UTC,Instrument flags,Ambient pressure (hPa),Sample flow (lpm),Bypass flow (lpm),Sample temperature (°C),Ambient temperature (°C),ASC tube jacket temperature (°C),LED temperature (°C),Box temperature (°C),Sample RH (%),Span deviation,Mass concentration (μg/m³),Mass concentration (μg/m³),Mass concentration (μg/m³)
DateTimeUTC,F1_M11,P_M11,Q1_M11,Q2_M11,T1_M11,T2_M11,T3_M11,T4_M11,T5_M11,U1_M11,ZSPAN_M11,X0_M11,X2_M11,X1_M11
2022-03-14 11:00:00,,0824.3,5.00,0.00,24.6,23.7,00.0,33.6,26.4,08.0,0000.0,0002.17,0000.95,0000.44
2022-03-14 11:01:00,,0824.3,5.00,0.00,24.6,23.7,00.0,33.6,26.3,08.1,0000.0,0002.08,0000.91,0000.44
2022-03-14 11:02:00,,0824.4,4.99,0.00,24.6,23.7,00.0,33.6,26.4,08.2,0000.0,0002.04,0000.91,0000.44
2022-03-14 11:03:00,,0824.4,4.98,0.00,24.6,23.7,00.0,33.6,26.4,08.0,0000.0,0001.89,0000.89,0000.44
2022-03-14 11:04:00,,0824.4,5.01,0.00,24.6,23.7,00.0,33.6,26.4,08.2,0000.0,0001.80,0000.86,0000.45
2022-03-14 11:05:00,,0824.4,5.01,0.00,24.6,23.7,00.0,33.6,26.4,07.9,0000.0,0001.80,0000.85,0000.44
2022-03-14 11:06:00,,0824.5,5.00,0.00,24.6,23.7,00.0,33.6,26.3,07.9,0000.0,0001.82,0000.86,0000.45
2022-03-14 11:07:00,,0824.4,4.99,0.00,24.6,23.7,00.0,33.6,26.4,08.1,0000.0,0001.85,0000.83,0000.45
2022-03-14 11:08:00,,0824.5,5.01,0.00,24.6,23.7,00.0,33.6,26.4,08.2,0000.0,0001.80,0000.82,0000.46
2022-03-14 11:09:00,,0824.5,5.01,0.00,24.6,23.7,00.0,33.6,26.4,08.1,0000.0,0001.77,0000.80,0000.46
2022-03-14 11:10:00,,0824.5,4.99,0.00,24.6,23.7,00.0,33.6,26.4,07.9,0000.0,0001.74,0000.79,0000.46
2022-03-14 11:11:00,,0824.6,4.99,0.00,24.6,23.7,00.0,33.6,26.4,07.7,0000.0,0001.78,0000.80,0000.45
2022-03-14 11:12:00,,0824.6,5.00,0.00,24.6,23.7,00.0,33.6,26.4,07.6,0000.0,0001.84,0000.82,0000.45
2022-03-14 11:13:00,,0824.6,5.01,0.00,24.6,23.7,00.0,33.5,26.3,07.5,0000.0,0001.77,0000.80,0000.45
2022-03-14 11:14:00,,0824.6,5.00,0.00,24.5,23.7,00.0,33.5,26.3,07.5,0000.0,0001.94,0000.78,0000.44
2022-03-14 11:15:00,,0824.6,5.00,0.00,24.5,23.7,00.0,33.5,26.3,07.6,0000.0,0002.63,0000.78,0000.44
2022-03-14 11:16:00,,0824.6,4.99,0.00,24.5,23.7,00.0,33.5,26.3,07.5,0000.0,0003.54,0000.78,0000.43
2022-03-14 11:17:00,,0824.6,5.00,0.00,24.5,23.7,00.0,33.5,26.3,07.5,0000.0,0003.61,0000.76,0000.43
2022-03-14 11:18:00,,0824.7,5.00,0.00,24.5,23.7,00.0,33.5,26.3,07.4,0000.0,0003.53,0000.78,0000.43
2022-03-14 11:19:00,,0824.7,5.01,0.00,24.5,23.7,00.0,33.5,26.4,07.3,0000.0,0003.41,0000.75,0000.41
2022-03-14 11:20:00,,0824.7,5.00,0.00,24.5,23.7,00.0,33.5,26.3,07.3,0000.0,0003.40,0000.76,0000.41
2022-03-14 11:21:00,,0824.6,4.98,0.00,24.5,23.7,00.0,33.5,26.3,07.1,0000.0,0003.59,0000.83,0000.42
2022-03-14 11:22:00,,0824.6,5.00,0.00,24.5,23.7,00.0,33.5,26.3,07.1,0000.0,0003.63,0000.84,0000.43
2022-03-14 11:23:00,,0824.7,5.01,0.00,24.5,23.7,00.0,33.5,26.4,07.2,0000.0,0003.65,0000.85,0000.44
2022-03-14 11:24:00,,0824.6,4.98,0.00,24.5,23.7,00.0,33.5,26.3,07.2,0000.0,0003.84,0000.87,0000.45
2022-03-14 11:25:00,,0824.6,5.00,0.00,24.5,23.7,00.0,33.5,26.3,07.2,0000.0,0003.74,0000.87,0000.46
2022-03-14 11:26:00,,0824.7,5.00,0.00,24.5,23.7,00.0,33.5,26.3,07.2,0000.0,0003.33,0000.91,0000.47
2022-03-14 11:27:00,,0824.7,5.00,0.00,24.5,23.6,00.0,33.5,26.3,07.2,0000.0,0002.36,0000.90,0000.47
2022-03-14 11:28:00,,0824.8,5.01,0.00,24.5,23.6,00.0,33.5,26.3,07.1,0000.0,0002.17,0000.88,0000.47
2022-03-14 11:29:00,,0824.9,4.99,0.00,24.5,23.6,00.0,33.5,26.3,07.2,0000.0,0002.33,0000.93,0000.47
2022-03-14 11:30:00,,0824.9,4.99,0.00,24.5,23.6,00.0,33.4,26.3,07.2,0000.0,0002.51,0000.96,0000.47
2022-03-14 11:31:00,,0824.9,5.00,0.00,24.5,23.6,00.0,33.4,26.3,07.3,0000.0,0002.45,0000.94,0000.47
2022-03-14 11:32:00,,0825.0,5.01,0.00,24.5,23.6,00.0,33.4,26.3,07.3,0000.0,0002.36,0000.91,0000.47
2022-03-14 11:33:00,,0825.1,4.99,0.00,24.5,23.6,00.0,33.4,26.3,07.3,0000.0,0002.32,0000.90,0000.47
2022-03-14 11:34:00,,0825.1,5.00,0.00,24.4,23.6,00.0,33.4,26.2,07.3,0000.0,0002.43,0000.93,0000.46
2022-03-14 11:35:00,,0825.1,5.00,0.00,24.4,23.5,00.0,33.4,26.2,07.3,0000.0,0002.37,0000.94,0000.47
2022-03-14 11:36:00,,0825.1,5.01,0.00,24.4,23.5,00.0,33.4,26.2,07.3,0000.0,0002.36,0000.92,0000.47
2022-03-14 11:37:00,,0825.1,5.00,0.00,24.4,23.5,00.0,33.4,26.2,07.5,0000.0,0002.26,0000.87,0000.47
2022-03-14 11:38:00,,0825.2,4.99,0.00,24.4,23.5,00.0,33.4,26.2,07.5,0000.0,0002.38,0000.88,0000.47
2022-03-14 11:39:00,,0825.2,4.99,0.00,24.4,23.5,00.0,33.4,26.2,07.6,0000.0,0002.47,0000.92,0000.48
2022-03-14 11:40:00,,0825.3,5.01,0.00,24.4,23.5,00.0,33.4,26.2,07.7,0000.0,0002.39,0000.89,0000.49
2022-03-14 11:41:00,,0825.3,5.01,0.00,24.4,23.5,00.0,33.4,26.2,07.6,0000.0,0002.50,0000.91,0000.50
2022-03-14 11:42:00,,0825.3,4.99,0.00,24.4,23.5,00.0,33.4,26.2,07.7,0000.0,0002.54,0000.94,0000.50
2022-03-14 11:43:00,,0825.3,5.00,0.00,24.4,23.5,00.0,33.4,26.2,07.7,0000.0,0002.59,0000.97,0000.50
2022-03-14 11:44:00,,0825.3,5.01,0.00,24.4,23.5,00.0,33.3,26.1,07.8,0000.0,0002.61,0000.98,0000.50
2022-03-14 11:45:00,,0825.3,4.98,0.00,24.3,23.5,00.0,33.3,26.1,07.7,0000.0,0002.51,0000.95,0000.49
2022-03-14 11:46:00,,0825.4,5.01,0.00,24.3,23.4,00.0,33.3,26.1,07.7,0000.0,0002.30,0000.91,0000.49
2022-03-14 11:47:00,,0825.4,5.01,0.00,24.3,23.4,00.0,33.3,26.1,07.7,0000.0,0002.29,0000.96,0000.49
2022-03-14 11:48:00,,0825.4,5.00,0.00,24.3,23.4,00.0,33.3,26.1,07.8,0000.0,0002.31,0001.00,0000.49
2022-03-14 11:49:00,,0825.4,5.00,0.00,24.3,23.4,00.0,33.3,26.1,07.9,0000.0,0002.29,0000.98,0000.49
2022-03-14 11:50:00,,0825.5,4.98,0.00,24.3,23.4,00.0,33.3,26.1,08.0,0000.0,0003.93,0000.96,0000.48
2022-03-14 11:51:00,,0825.5,5.00,0.00,24.3,23.4,00.0,33.3,26.1,08.0,0000.0,0003.89,0000.97,0000.48
2022-03-14 11:52:00,,0825.5,5.01,0.00,24.3,23.4,00.0,33.3,26.0,08.1,0000.0,0003.69,0000.94,0000.47
2022-03-14 11:53:00,,0825.5,5.00,0.00,24.2,23.3,00.0,33.3,26.0,08.2,0000.0,0004.15,0000.92,0000.47
2022-03-14 11:54:00,,0825.5,4.99,0.00,24.2,23.3,00.0,33.2,26.0,08.3,0000.0,0004.86,0000.90,0000.47
2022-03-14 11:55:00,,0825.5,5.00,0.00,24.2,23.3,00.0,33.2,26.0,08.3,0000.0,0004.78,0000.87,0000.47
2022-03-14 11:56:00,,0825.6,5.01,0.00,24.2,23.3,00.0,33.2,26.0,08.4,0000.0,0004.77,0000.86,0000.47
2022-03-14 11:57:00,,0825.6,5.01,0.00,24.2,23.3,00.0,33.2,26.0,08.4,0000.0,0006.29,0000.91,0000.46
2022-03-14 11:58:00,,0825.6,5.00,0.00,24.2,23.3,00.0,33.2,26.0,08.5,0000.0,0006.23,0000.87,0000.46
2022-03-14 11:59:00,,0825.6,4.99,0.00,24.2,23.3,00.0,33.2,26.0,08.6,0000.0,0006.08,0000.84,0000.45
